This demonstration page uses our WeatherBlox Daily Observations layout. Learn more.

41.55636, -103.73856

Hourly Observations for January 1, 2020

Temp ( °F °C ) Dew Point ( °F °C ) Humidity (%) Winds ( mph kmh ) Pressure ( in mb ) Visibility ( mi km ) Precip ( " mm )
12:58 am 00:58 Clear 27 -2.6 13 -10.7 54 54 W 13 20 29.98 1015 10 16.0934 0 0
1:58 am 01:58 Clear 23 -4.9 11 -11.7 59 59 W 15 24 29.98 1015 10 16.0934 0 0
2:58 am 02:58 Clear 24 -4.5 13 -10.8 62 62 WSW 9 15 29.95 1014 10 16.0934 0 0
3:58 am 03:58 Clear 26 -3.3 13 -10.5 58 58 WSW 13 20 29.9 1013 10 16.0934 0 0
4:58 am 04:58 Mostly Clear 31 -0.7 17 -8.4 56 56 WNW 20 31 29.85 1011 10 16.0934 0 0
5:59 am 05:59 Mostly Clear 27 -2.9 17 -8.4 66 66 W 14 22 29.83 1010 10 16.0934 0 0
6:58 am 06:58 Mostly Clear 29 -1.8 17 -8.4 61 61 W 10 17 29.77 1008 10 16.0934 0 0
7:58 am 07:58 Clear 30 -1.1 18 -7.8 61 61 W 12 19 29.73 1007 10 16.0934 0 0
8:58 am 08:58 Clear 29 -1.7 18 -7.9 63 63 SW 8 13 29.69 1005 10 16.0934 0 0
9:58 am 09:58 Clear 30 -0.9 20 -6.6 66 66 W 13 20 29.66 1004 10 16.0934 0 0
10:58 am 10:58 Clear 27 -2.7 20 -6.9 73 73 WSW 10 17 29.65 1004 10 16.0934 0 0
11:58 am 11:58 Partly Cloudy 32 -0.1 22 -5.8 66 66 W 17 28 29.62 1003 10 16.0934 0 0
12:58 pm 12:58 Mostly Cloudy 31 -0.5 23 -4.9 72 72 W 12 19 29.61 1003 10 16.0934 0 0
1:58 pm 13:58 Mostly Cloudy 36 2 26 -3.5 67 67 W 16 26 29.59 1002 10 16.0934 0 0
2:58 pm 14:58 Mostly Sunny 40 4.6 28 -2.4 61 61 W 23 37 29.53 1000 10 16.0934 0 0
3:58 pm 15:58 Mostly Cloudy 41 4.9 29 -1.9 62 62 W 15 24 29.53 1000 10 16.0934 0 0
4:58 pm 16:58 Mostly Cloudy 41 5.2 26 -3.1 55 55 WNW 30 48 29.52 1000 10 16.0934 0 0
5:59 pm 17:59 Mostly Cloudy 40 4.6 27 -2.8 59 59 WNW 30 48 29.53 1000 10 16.0934 0 0
6:58 pm 18:58 Cloudy 39 3.9 28 -2.2 65 65 WNW 26 43 29.52 1000 10 16.0934 0 0
7:58 pm 19:58 Mostly Cloudy 39 4.1 28 -2.4 63 63 WNW 16 26 29.49 999 10 16.0934 0 0
8:58 pm 20:58 Partly Cloudy 40 4.4 27 -3 59 59 WNW 17 28 29.48 998 10 16.0934 0 0
9:58 pm 21:58 Sunny 40 4.7 28 -2.5 60 60 W 16 26 29.49 999 10 16.0934 0 0
10:58 pm 22:58 Mostly Sunny 39 3.8 26 -3.1 61 61 NW 17 28 29.51 999 10 16.0934 0 0
11:58 pm 23:58 Clear 38 3.6 26 -3.2 61 61 WNW 21 33 29.5 999 10 16.0934 0 0

Powered by AerisWeather